Location: Saint-Palais-sur-Mer
(45.6429°N, 1.0859°W)
Time: 23:35:56
(UTC+01:00)

Vanguard 1 - Pass Details

Date: 17 February 2026
Orbit: 653 x 3818 km, 34.2° (Epoch: 12 March)

Event Time Altitude Azimuth Distance (km) Brightness Sun altitude
Rises 20:36:49 0° 271° (W) 6,096 15.6 -22.1°
Reaches altitude 10° 20:40:23 10° 266° (W) 5,437 14.9 -22.7°
Maximum altitude 20:57:20 51° 198° (SSW) 4,150 13.1 -25.6°
Enters shadow 21:13:01 23° 138° (SE) 5,835 13.5 -28.3°
